Find Starlink 11233

NORAD ID: 61061 Int'l Des: 2024-164 Owner: SPXS Country: US Constellation: starlink operational
LEOCIRCULAR

現在のビュー

3D地球を読み込み中...

About Starlink 11233

Starlink 11233 (NORAD 61061) is a starlink constellation satellite (v2 mini d2c) launched Sep 13, 2024 by SPXS of US. It operates in LEO, CIRCULAR orbit with a mass of 960.00 kg.

Starlink 11233について

説明を読み込み中...

次回通過

Passes for default location (London). Set your location on the main map for personalized predictions.

高度履歴

Loading altitude history...

軌道要素

1 61061U 24164M 26171.23890306 .00000860 00000-0 11957-4 0 9990
2 61061 53.1602 165.8658 0001143 89.1852 270.9297 15.69713615101523
Epoch: Jun 20, 2026 • Age: 47 hours

現在のステータス

高度 378.5 km
速度 7.68 km/s
衛星直下点 -52.07°S, 101.41°E
打ち上げ日 Sep 13, 2024
運用期間 1.7 years
タイプ internet

技術仕様

分類 Payload
質量 960.00 kg
乾燥質量 910.00 kg
総質量 960.00 kg
長さ 0.30 m
直径 4.10 m
スパン 29.00 m
形状 Box + pan
製造者 SPXS
バスタイプ Starlink V2MD
フェーズステータス In Orbit
所有者/国 SPXS/US

Most Searched